Location: Jericho
(44.7942°N, 73.6626°W)
Time: 04:57:12
(UTC+00:00)

Daily predictions for brighter satellites

Satellite Brightness Start Highest point End
(mag) Time Altitude Azimuth Time Altitude Azimuth Time Altitude Azimuth
COSMO-SKYMED 1 4.4 00:12:28 10° N 00:16:14 35° WNW 00:19:58 10° SW
COSMOS 2428 3.8 00:12:56 10° SW 00:18:29 51° WNW 00:24:06 10° NNE
TSX-5 4.0 00:15:25 10° SSW 00:20:22 80° ESE 00:24:28 10° NNE
USA 32 4.4 00:16:21 10° SSE 00:21:15 43° E 00:26:10 10° NNE
CZ-4 R/B 1.7 00:20:47 10° SE 00:24:18 41° ENE 00:27:48 10° N
In-Cosmos 22 Rocket 4.3 00:19:07 10° NNW 00:24:26 77° W 00:29:45 10° S
CSL-04 Debris 4.3 00:20:50 10° SSE 00:26:06 62° ENE 00:31:26 10° N
OAO 3 Rocket 4.5 00:23:12 10° SW 00:26:57 24° S 00:30:44 10° SE
Cosmos 1821 Rocket 4.2 00:25:01 10° SSE 00:31:04 53° E 00:37:13 10° NNE
Cosmos 614 Rocket 4.1 00:26:13 10° NNW 00:31:21 61° ENE 00:36:23 10° SSE
Cosmos 1125 Rocket 3.5 00:27:42 10° S 00:32:50 64° ESE 00:38:03 10° NNE
SL-16 R/B 3.0 00:30:39 10° SSE 00:35:24 28° ESE 00:40:10 10° NE
Cosmos 2218 Rocket 3.9 00:29:25 10° S 00:35:32 79° E 00:41:43 10° N
CZ-4B R/B 3.7 00:32:35 10° SSE 00:36:17 71° ENE 00:40:09 10° N
Meteor 2-15 4.4 00:33:36 10° S 00:39:39 78° E 00:45:46 10° NNE
ERS-1 Rocket 3.3 00:36:15 10° SE 00:41:01 47° ENE 00:45:50 10° N
USA 234 3.5 00:35:20 10° ENE 00:41:38 47° SE 00:47:54 10° SSW
USA 59 Rocket -0.2 00:39:14 10° NNW 00:42:41 71° NE 00:46:41 13° SE
Meteor 2-15 Rocket 4.4 00:40:42 10° S 00:46:39 63° E 00:52:41 10° NNE
PAYLOAD B 4.3 00:46:02 10° SSE 00:51:28 66° ENE 00:56:55 10° N
Cosmos 1812 0.7 00:52:09 41° SE 00:52:24 47° E 00:54:02 10° NNE
IRAS Rocket 4.4 00:50:03 10° SSE 00:55:31 76° WSW 01:01:02 10° NNW
USA 238 DEB 4.4 00:48:47 10° NW 00:56:12 63° WSW 01:04:11 10° SSE
USA 238 4.4 00:48:58 10° NW 00:56:22 64° WSW 01:04:22 10° SSE
SL-8 R/B 3.6 00:52:31 10° SW 00:57:13 69° SSE 01:01:55 10° ENE
Cosmos 1656 Rocket 3.7 00:52:44 10° NNW 00:58:11 62° ENE 01:02:31 16° SE
BREEZE-M DEB (TANK) 4.4 00:56:36 10° W 00:58:16 14° SW 00:59:38 10° SSW
Helios 1A Rocket 2.2 00:55:27 10° NNE 00:58:40 88° W 01:01:51 10° SSW
Cosmos 1346 Rocket 2.9 00:58:18 10° N 01:01:47 44° ENE 01:03:48 21° SE
Geosat 4.4 00:57:53 10° NE 01:02:31 37° ESE 01:07:08 10° S
Cosmos 1400 Rocket 2.7 00:59:41 10° SSW 01:03:16 75° W 01:06:54 10° N
Cosmos 2237 Rocket 3.2 00:58:11 10° SW 01:03:42 52° WNW 01:09:17 10° NNE
Spot 2 Rocket 4.1 01:02:36 18° SE 01:05:48 39° ENE 01:10:27 10° N
Cosmos 2285 Rocket 4.3 01:00:08 10° S 01:06:05 43° ESE 01:12:01 10° NNE
Cosmos 44 3.4 01:04:16 10° SSW 01:09:11 63° ESE 01:14:26 10° NE
Meteor 1-31 Rocket 3.8 01:09:26 10° S 01:12:45 40° W 01:16:06 10° NNW
RESURS DK-1 3.8 01:09:18 10° SW 01:13:01 38° WNW 01:16:45 10° NNE
SL-4 R/B 3.9 01:12:48 10° S 01:13:24 13° S 01:13:24 13° S
SKYMED 3 4.2 01:11:54 10° NNE 01:15:47 72° ESE 01:19:39 10° S
Feng Yun 1-1 Rocket 4.4 01:11:27 10° S 01:16:56 72° WSW 01:22:22 10° NNW
SPOT 5 4.2 01:13:25 10° SSW 01:17:31 34° W 01:21:31 10° NNW
Cosmos 1674 Rocket 3.4 01:14:00 10° N 01:18:22 85° E 01:21:34 18° S
Okean-O 3.0 01:16:38 25° SE 01:18:43 44° ENE 01:22:54 10° N
NOSS 2-1 (D) 3.7 01:17:40 10° NW 01:21:09 58° SW 01:23:49 22° SSE
Cosmos 1869 3.7 01:21:05 31° ESE 01:21:22 32° E 01:24:34 10° NNE
Gbstr 26 Del rocket 4.1 01:17:58 10° SSW 01:22:25 27° SE 01:22:43 27° SE
Cosmos 2150 Rocket 3.9 01:19:38 10° S 01:24:40 60° ESE 01:29:48 10° NNE
Cosmos 1908 Rocket 3.5 01:22:34 19° S 01:25:33 59° E 01:29:48 10° NNE
Cosmos 2297 4.2 01:21:19 10° NNW 01:26:52 46° ENE 01:29:40 27° ESE
SL-24 R/B 4.4 01:22:27 10° N 01:27:11 71° WNW 01:31:26 10° SSW
Okean O Rocket 1.7 01:26:16 30° SE 01:28:14 58° ENE 01:32:29 10° N
NOSS 2-1 (E) 3.5 01:24:49 10° NW 01:28:18 66° SW 01:30:24 28° SSE
Cosmos 1378 Rocket 4.5 01:26:44 10° NNW 01:30:56 47° W 01:35:05 10° SSW
CZ-4B R/B 3.8 01:31:08 24° ENE 01:31:09 24° ENE 01:33:58 10° NNE
Terra 2.1 01:27:25 15° S 01:31:17 67° WSW 01:35:59 10° NNW
Cosmos 2369 Rocket 2.4 01:27:18 10° NNW 01:32:48 56° ENE 01:35:25 30° SE
NOSS 2-1 (C) 3.9 01:30:31 10° NW 01:33:58 50° SW 01:36:05 26° S
Cosmos 1782 Rocket 4.0 01:35:06 35° ESE 01:35:41 37° E 01:39:40 10° NNE
NOSS 3-1 (C) 4.2 01:30:34 10° NNW 01:37:29 60° NE 01:42:29 26° ESE
Lacrosse 5 rocket 3.6 01:37:30 10° N 01:38:16 11° N 01:39:03 10° NNE
ADEOS 4.0 01:38:34 16° S 01:42:42 60° WSW 01:47:52 10° NNW
SPOT 3 Rocket 4.0 01:42:15 33° ESE 01:43:56 44° ENE 01:48:49 10° N
SL-08 R/B 4.4 01:39:32 10° S 01:45:40 90° E 01:51:49 10° N
Cosmos 1943 3.6 01:45:43 34° SE 01:47:12 40° ESE 01:52:28 10° NE
CZ-4B R/B 3.9 01:43:20 14° S 01:48:07 53° W 01:53:39 10° NNW
USA 245 4.2 01:47:24 39° ESE 01:48:50 54° ENE 01:54:07 10° N
Cosmos 1025 Rocket 3.7 01:45:37 10° NNW 01:49:44 50° W 01:52:18 21° SSW
ASTEX 1 3.4 01:47:30 27° S 01:50:12 84° W 01:55:10 10° N
Cosmos 1934 Rocket 3.9 01:46:12 16° S 01:51:17 79° E 01:57:29 10° N
CZ-4 R/B 4.0 01:56:24 10° SW 01:58:31 14° W 02:00:37 10° WNW
Cosmos 405 Rocket 3.3 01:57:18 10° N 01:59:13 34° NNE 01:59:13 34° NNE
Cosmos 2263 4.2 01:56:33 10° NNW 02:02:13 72° ENE 02:03:58 45° SE
IRS-1C Rocket 4.4 02:01:12 42° ESE 02:02:27 52° ENE 02:07:34 10° N
Cosmos 1300 Rocket 3.4 02:03:00 46° SSW 02:04:14 86° W 02:08:33 10° N
SL-08 R/B 4.5 02:03:23 10° N 02:08:02 45° WNW 02:12:40 10° SW
USA 186 4.0 02:11:40 17° NW 02:11:40 17° NW 02:12:33 10° NW
Cosmos 967 Rocket 4.4 02:04:35 10° NW 02:11:05 90° SSW 02:13:17 45° SSE
Cosmos 1023 Rocket 4.3 02:09:07 10° NNW 02:14:13 70° ENE 02:14:59 59° ESE
BREEZE-M DEB (TANK) 2.8 02:14:04 10° WNW 02:16:11 63° NNW 02:16:11 63° NNW
Cosmos 2123 Rocket 4.4 02:10:25 10° NNW 02:16:37 62° W 02:20:10 26° SSW
SL-16 R/B 3.2 02:13:48 10° SW 02:19:13 46° WNW 02:24:43 10° NNE
CZ-2C R/B 4.2 02:23:16 23° N 02:23:16 23° N 02:24:31 10° N
SJ 16-02 3.2 02:19:54 10° N 02:22:38 19° NE 02:22:38 19° NE
Cosmos 2058 3.5 02:20:29 10° N 02:23:27 43° NNE 02:23:27 43° NNE
USA 234 3.7 02:18:19 10° NE 02:24:45 61° NNW 02:31:11 10° WSW
USA 59 Rocket 2.6 02:29:32 10° W 02:31:11 12° WSW 02:32:15 11° SW
Cosmos 1862 4.2 02:31:00 10° N 02:33:25 40° N 02:33:25 40° N
NOSS 3-1 (A) 4.2 02:29:37 10° NNW 02:36:41 65° NE 02:39:39 42° ESE
Ariane Rocket 2.8 02:36:30 73° SSW 02:36:58 82° WSW 02:42:02 10° NNW
Cosmos 1535 Rocket 4.5 02:34:31 38° SSW 02:37:00 76° W 02:43:12 10° N
CZ-4B R/B 3.4 02:37:09 65° SW 02:37:33 68° WSW 02:42:17 10° NNW
Cosmos 1605 Rocket 3.9 02:37:05 42° SSW 02:39:17 79° W 02:45:27 10° N
SL-8 R/B 4.1 02:34:58 10° W 02:39:39 57° N 02:40:47 44° NE
IRS-P2 Rocket 4.4 02:41:00 77° SE 02:41:23 86° ENE 02:46:37 10° NNW
COSMOS 2455 2.9 02:40:14 10° NNW 02:46:13 62° NE 02:46:57 57° E
Cosmos 1269 Rocket 4.0 02:40:57 10° NNW 02:46:13 74° WSW 02:46:31 72° SW
Cosmos 304 Rocket 4.3 02:42:15 10° NNW 02:46:24 49° NE 02:46:24 49° NE
Cosmos 1315 Rocket 3.9 02:47:50 38° WNW 02:47:50 38° WNW 02:51:02 10° N
Cosmos 921 Rocket 3.4 02:44:00 10° NNW 02:47:42 62° NNW 02:47:42 62° NNW
Cosmos 1975 Rocket 3.6 02:44:45 10° NNW 02:48:54 55° W 02:48:54 55° W
Cosmos 2173 Rocket 4.3 02:53:20 47° E 02:53:20 47° E 02:58:45 10° NNE
Cosmos 1140 Rocket 3.7 02:48:37 10° NNW 02:53:39 57° WSW 02:53:47 57° WSW
ATLAS 5 CENTAUR R/B 2.8 02:57:23 10° NNW 03:00:41 35° NNE 03:00:41 35° NNE
Okean O Rocket 4.0 03:03:30 13° WSW 03:04:47 14° W 03:07:06 10° WNW
Cosmos 407 Rocket 3.6 03:03:18 10° NNW 03:07:51 71° NNW 03:07:51 71° NNW
Cosmos 2100 Rocket 3.9 03:15:21 72° ENE 03:15:21 72° ENE 03:21:19 10° NNE
Lacrosse 5 rocket 3.8 03:12:57 10° NNW 03:13:45 15° NNW 03:13:45 15° NNW
Cosmos 2369 Rocket 3.8 03:12:07 10° NW 03:16:22 23° WSW 03:17:11 22° WSW
Cosmos 2251 Rocket 4.0 03:14:34 10° NNW 03:19:10 52° NE 03:19:10 52° NE
BREEZE-M DEB (TANK) 3.8 03:21:06 10° WNW 03:43:40 - ESE 03:24:44 81° NNE
Cosmos 1697 Rocket 4.3 03:21:38 10° N 03:26:09 24° NE 03:26:47 23° ENE
Cosmos 1603 3.8 03:28:20 71° NW 03:28:20 71° NW 03:33:51 10° NNE
Meteor 2-3 Rocket 3.9 03:24:14 10° N 03:29:08 66° NNE 03:29:08 66° NNE
Cosmos 371 Rocket 4.1 03:26:46 10° NNW 03:30:20 47° NW 03:30:20 47° NW
ARIANE 5 R/B 4.4 03:41:44 27° NNE 03:41:44 27° NNE 03:44:05 10° N
SeaSat 1 3.3 03:41:04 46° NNE 03:41:04 46° NNE 03:44:50 10° NNW
ATLAS 2AS CENTAUR R/B 3.7 03:44:29 33° ENE 03:44:29 33° ENE 03:48:37 10° NE
Cosmos 1980 Rocket 4.3 03:42:24 10° N 03:46:10 18° NE 03:47:45 16° ENE
Cosmos 1725 Rocket 4.0 03:57:52 76° N 03:57:52 76° N 04:03:41 10° N
SJ 16-02 3.4 03:57:15 10° NNW 03:59:08 24° NW 03:59:08 24° NW
Cosmos 1459 Rocket 4.4 04:02:19 56° W 04:02:26 56° WNW 04:08:39 10° N
Cosmos 2233 Rocket 4.2 04:08:32 66° NNE 04:08:32 66° NNE 04:13:54 10° N
Cosmos 1656 4.5 04:05:11 10° NNW 04:09:03 45° NW 04:09:03 45° NW
Cosmos 1802 Rocket 4.3 04:13:06 62° WNW 04:13:06 62° WNW 04:19:02 10° N
Cosmos 1833 Rocket 3.6 04:23:20 41° NE 04:23:20 41° NE 04:26:58 10° NNE
Cosmos 2016 Rocket 4.4 04:29:24 55° WNW 04:29:24 55° WNW 04:35:18 10° N
CZ-2C R/B 4.2 04:35:07 10° NNE 04:38:31 38° NE 04:38:31 38° NE
ATLAS 5 CENTAUR R/B 4.2 04:39:17 10° NW 04:39:49 13° WNW 04:39:49 13° WNW
ACS3 Solar Sail 3.6 04:42:05 10° NE 04:45:39 19° E 04:45:39 19° E
CZ-4C R/B 4.4 04:51:52 12° ENE 04:51:52 12° ENE 04:52:20 10° ENE
CZ-2C R/B 3.4 04:53:16 49° NNE 04:53:16 49° NNE 04:57:25 10° N
ATLAS 3B R/B 3.1 04:54:52 10° NW 05:02:40 66° NE 05:03:46 59° E
Cosmos 1697 Rocket 3.8 05:04:59 10° NNW 05:08:28 38° NW 05:08:28 38° NW
USA 229 DEB 3.9 05:19:36 10° NW 05:26:58 77° WSW 05:26:58 77° WSW
USA 229 3.9 05:19:39 10° NW 05:27:06 78° WSW 05:27:06 78° WSW
Cosmos 1980 Rocket 2.9 05:25:16 10° NNW 05:29:28 51° NNW 05:29:28 51° NNW
ATLAS 2AS CENTAUR R/B 3.4 05:31:51 43° WNW 05:33:04 47° NW 05:39:39 10° NNE
Cosmos 2369 4.2 05:37:07 10° NNW 05:42:14 56° NE 05:42:14 56° NE
Cosmos 1634 Rocket 4.4 05:49:53 52° E 05:49:53 52° E 05:55:41 10° NNE
Cosmos 2098 Rocket 4.3 05:53:20 50° NNW 05:53:20 50° NNW 05:57:47 10° N
Cosmos 2360 Rocket 4.5 05:53:17 10° N 05:57:28 21° NE 06:01:38 10° E
Cosmos 1607 4.3 05:59:39 55° E 05:59:39 55° E 06:05:00 10° NE
Cosmos 2333 Rocket 3.7 05:54:38 10° N 05:59:41 32° NE 06:02:50 19° ESE
Cosmos 1627 Rocket 4.5 05:56:27 10° N 06:02:30 82° NNE 06:02:30 82° NNE
Cosmos 2082 Rocket 2.4 06:04:49 67° N 06:04:49 67° N 06:09:47 10° NNE
Cosmos 1833 Rocket 4.5 06:04:58 20° WNW 06:05:52 21° NW 06:10:03 10° N
Cosmos 2322 Rocket 4.1 06:08:27 10° N 06:13:12 27° NE 06:17:56 10° ESE
USA 281 3.7 06:11:57 32° ESE 06:14:55 56° ENE 06:21:19 10° NNW
GP-B 4.4 06:12:13 10° N 06:14:53 37° N 06:14:53 37° N
Cosmos 2279 Rocket 4.2 06:17:37 58° ESE 06:18:04 60° E 06:24:12 10° NNE
Cosmos 2058 Rocket 4.2 06:23:26 42° NNE 06:23:26 42° NNE 06:26:27 10° NNE
SL-16 R/B 2.7 06:23:09 10° NNW 06:28:44 57° ENE 06:30:10 44° ESE
ACS3 Solar Sail 1.7 06:23:08 10° N 06:29:11 73° WNW 06:29:12 73° WNW
NOSS 3-3 (A) 3.7 06:36:21 71° E 06:36:21 71° E 06:41:59 10° NE
CZ-4C R/B 2.6 06:36:45 43° NNW 06:36:45 43° NNW 06:41:26 10° NNE
Gbstr 26 Del rocket 4.5 06:43:32 28° ENE 06:43:32 28° ENE 06:45:44 10° E
Cosmos 2266 Rocket 4.4 06:44:14 10° N 06:50:15 57° ENE 06:52:41 34° SE
NOSS 3-3 (C) 3.5 06:52:45 80° SSE 06:52:53 81° SE 06:58:59 10° NE
ATLAS 3B R/B 3.9 06:46:21 10° NW 06:50:58 28° W 06:50:58 28° W
Cosmos 1975 4.1 06:50:45 10° N 06:53:21 35° NE 06:53:21 35° NE
USA 267 3.5 06:48:30 10° ENE 06:54:55 54° SE 06:56:03 48° SSE
Meteor 2-6 Rocket 4.1 06:55:39 75° SSW 06:56:11 89° WNW 07:02:05 10° N
IDEFIX/ARIANE 42P 2.4 06:54:13 10° N 06:59:24 74° WNW 06:59:26 74° WNW
Envisat 4.2 06:55:38 10° NNE 07:00:16 35° E 07:01:47 29° SE
MOZ.5/SAFIR/RUBIN 5/SL-8 4.3 07:00:42 45° ESE 07:01:44 55° ENE 07:06:17 10° N
Iridium 4 Rocket 4.3 07:01:34 34° ESE 07:02:51 41° E 07:07:32 10° NNE
Cosmos 44 Rocket 4.1 07:04:01 40° WNW 07:04:22 41° NW 07:09:17 10° NNE
ALOS 3.7 07:08:02 10° NNE 07:12:06 31° E 07:13:36 25° SE
Cosmos 1763 Rocket 3.5 07:12:59 61° SSE 07:13:46 73° ESE 07:19:03 10° NNE
ADEOS II 3.7 07:11:17 10° NE 07:15:48 29° E 07:18:54 17° SE
Cosmos 220 Rocket 4.5 07:19:39 45° NNW 07:19:39 45° NNW 07:22:56 10° NNE
BREEZE-M DEB (TANK) 4.1 07:19:20 35° S 07:21:05 40° SSE 07:25:01 10° E
COSMOS 2406 3.8 07:20:34 41° W 07:21:34 44° WNW 07:27:04 10° NNE
CZ-2D R/B 2.8 07:20:45 10° NNE 07:25:51 48° E 07:28:19 28° SSE
MSX 4.2 07:22:22 10° N 07:27:50 46° WNW 07:28:54 42° W
CZ-3 R/B 4.4 06:49:04 10° WSW 07:29:42 46° S 07:41:20 10° ESE
USA 234 3.9 07:24:51 10° ESE 07:31:13 57° NNE 07:37:36 10° NW
Cosmos 2221 2.7 07:32:53 51° WNW 07:32:53 51° WNW 07:36:35 10° N
Cosmos 1354 Rocket 3.9 07:30:00 10° NNW 07:35:18 89° ENE 07:38:48 22° SSE
Cosmos 1503 Rocket 3.9 07:31:18 10° NNW 07:36:29 62° WSW 07:37:31 51° SSW
Cosmos 1271 Rocket 3.5 07:41:12 36° NW 07:41:12 36° NW 07:43:43 10° N
FENGYUN 3A 4.1 07:36:25 10° N 07:41:34 45° WNW 07:42:45 39° WSW
Cosmos 540 Rocket 3.4 07:40:24 51° SW 07:41:38 74° WNW 07:46:48 10° NNE
Cosmos 2360 Rocket 2.1 07:36:25 10° NNW 07:42:06 78° WSW 07:47:32 11° SSE
BREEZE-M DEB (TANK) 3.8 07:41:31 29° NW 07:42:41 44° NNE 07:48:51 10° E
BREEZE-M DEB (TANK) 2.8 07:42:24 35° NW 07:43:43 72° NNE 07:51:33 10° ESE
Cosmos 2333 Rocket 2.5 07:38:45 10° NW 07:44:06 45° WSW 07:44:45 43° SW
ADEOS Rocket 3.7 07:38:18 10° N 07:45:47 62° WNW 07:49:37 32° SW
SL-4 R/B 1.6 07:45:49 60° WNW 07:46:28 87° SSW 07:50:16 10° ESE
USA 290 2.5 07:47:47 62° N 07:47:47 62° N 07:50:31 10° NNE
Cosmos 468 Rocket 4.1 07:46:45 36° S 07:48:58 74° ESE 07:54:15 10° NNE
Cosmos 2082 Rocket 4.1 07:46:37 14° WNW 07:49:00 17° NW 07:52:41 10° N
Cosmos 1766 Rocket 4.0 07:44:49 10° N 07:49:07 59° ENE 07:52:29 16° SSE
Resurs 1-4 Rocket 2.0 07:48:35 10° NNE 07:53:56 88° WNW 07:56:26 33° SSW
Cosmos 2278 4.2 07:51:59 10° NW 07:57:14 38° WSW 07:58:15 35° SW
Cosmos 2322 Rocket 2.2 07:52:02 10° NW 07:57:32 54° WSW 08:01:23 19° S
USA 281 3.9 07:58:48 30° WSW 07:59:40 31° WSW 08:05:24 10° NW
BREEZE-M DEB (TANK) 3.8 07:48:49 10° WNW 08:01:10 75° SSW 08:04:46 10° SE
Cosmos 1833 4.2 07:59:53 34° SW 08:02:27 74° WNW 08:08:09 10° NNE
H-2A R/B 2.1 08:01:17 10° NNE 08:06:28 84° ESE 08:09:58 22° S
DNEPR-1 R/B 4.3 08:02:22 10° NW 08:07:51 90° SW 08:14:34 10° SSE
ISS -3.2 08:08:06 41° S 08:08:37 45° SE 08:11:53 10° ENE
ACS3 Solar Sail 3.7 08:07:47 10° NNW 08:10:33 14° NW 08:12:45 11° WNW
Cosmos 2219 Rocket 2.1 08:05:35 10° NNW 08:11:13 74° WSW 08:16:50 10° SSE
SL-16 R/B 3.4 08:08:02 10° NW 08:11:55 23° W 08:11:55 23° W
Meteor 1-11 Rocket 4.1 08:10:09 10° NNW 08:15:40 44° W 08:18:51 23° SSW
JB-3 3.9 08:15:11 16° SSE 08:18:01 85° W 08:21:38 10° NNW
Cosmos 1461 2.6 08:18:12 33° SSW 08:19:44 76° ESE 08:23:28 10° NE
ARGOS 3.9 08:15:04 10° NNE 08:20:20 52° E 08:25:32 10° S
Meteor 2-11 Rocket 4.4 08:15:12 10° N 08:21:24 90° WNW 08:27:32 10° S
METEOR-M 4.2 08:16:58 10° NNE 08:22:19 80° ESE 08:27:08 13° S
CZ-4C R/B 4.2 08:23:15 10° NW 08:26:12 15° NNW 08:29:34 10° NNE
H-2A R/B 2.8 08:26:13 31° WSW 08:26:45 33° W 08:30:02 10° NNW
Gbstr 26 Del rocket 2.6 08:25:36 15° WNW 08:28:33 53° SW 08:32:14 10° SE
Cosmos 2084 Rocket 3.7 08:24:49 10° NW 08:28:48 41° WSW 08:32:47 10° SSE
Cosmos 372 Rocket 3.9 08:24:50 10° NNW 08:29:59 70° WSW 08:35:03 10° S
Alouette 2 Rocket 3.5 08:27:29 10° NNW 08:31:14 45° W 08:33:25 20° SSW
Cosmos 2322 4.2 08:26:31 10° NNW 08:32:12 64° ENE 08:37:51 10° SE
Cosmos 1238 Rocket 3.3 08:36:09 23° W 08:36:19 23° WNW 08:38:47 10° NNW
Cosmos 1151 Rocket 4.1 08:33:21 10° SSE 08:37:19 43° E 08:41:20 10° NNE
USA 267 3.7 08:31:34 10° NE 08:37:57 56° NNW 08:43:24 15° WSW
Envisat 3.9 08:34:41 10° N 08:39:07 31° WNW 08:41:55 19° WSW
Cosmos 1842 Rocket 3.5 08:37:09 17° SSW 08:40:23 62° W 08:44:41 10° N
AQUA 3.9 08:37:11 10° NNE 08:41:53 78° ESE 08:46:33 10° S
Aureole 1 Rocket 3.8 08:38:24 10° NW 08:42:30 39° WSW 08:47:31 10° S
Meteor 2-4 Rocket 3.9 08:40:31 17° SW 08:44:29 48° WNW 08:49:39 10° N
USA 276 0.3 08:46:31 69° NW 08:46:39 85° NNE 08:48:24 10° ESE
Cosmos 1758 3.6 08:44:43 10° N 08:48:20 61° E 08:51:54 10° SSE
SL-08 R/B 4.5 08:42:10 10° NNW 08:48:29 74° W 08:54:47 10° S
ALOS 3.3 08:45:02 10° N 08:48:56 29° WNW 08:51:38 16° WSW
Cosmos 1066 Rocket 4.1 08:44:20 11° SSW 08:49:26 62° WNW 08:54:45 10° N
Sich 1 2.8 08:48:34 10° NNW 08:52:43 72° W 08:56:50 10° S
ADEOS II 2.7 08:50:35 10° N 08:55:25 39° WNW 08:59:43 13° SW
Okean 3 Rocket 3.5 08:51:48 10° NNW 08:56:14 70° W 09:00:40 10° S
NOSS 0 Rocket 4.3 08:52:40 10° NNW 08:58:53 71° ENE 09:05:01 10° SE
Cosmos 2297 Rocket 3.1 08:55:56 10° S 09:01:22 50° ESE 09:06:48 10° NE
Cosmos 841 Rocket 3.7 08:58:30 12° SW 09:03:09 52° WNW 09:08:14 10° NNE
Cosmos 1805 Rocket 3.6 08:59:49 10° N 09:04:15 85° E 09:08:36 10° S
CZ-2D R/B 3.3 09:01:18 10° N 09:05:32 25° WNW 09:09:35 11° WSW
NOSS 3-4 (A) 4.2 09:00:11 10° NW 09:06:48 46° WSW 09:14:26 10° S
NOSS 3-4 (C) 4.2 09:00:43 10° NW 09:07:22 46° WSW 09:15:01 10° S
Cosmos 1386 Rocket 4.5 09:03:24 10° NNW 09:09:29 69° W 09:15:39 10° S
ATLAS 5 CENTAUR R/B 4.3 09:05:36 11° SW 09:11:10 80° NW 09:35:50 10° NE
COSMOS 2428 2.7 09:05:42 10° NNW 09:11:24 74° WSW 09:17:04 10° SSE
H-2A R/B 1.9 09:07:28 10° N 09:11:28 64° WNW 09:15:22 10° SSW
Cosmos 1898 Rocket 3.9 09:07:32 10° NW 09:12:19 39° WSW 09:17:05 10° S
S3M 4.2 09:06:28 10° S 09:12:49 84° E 09:19:09 10° N
USA 234 3.4 09:07:56 10° SSE 09:14:16 53° SW 09:20:39 10° WNW
Cosmos 1937 Rocket 3.6 09:11:29 10° NNW 09:16:29 50° WSW 09:21:25 10° S
Cosmos 1340 Rocket 3.6 09:13:05 10° N 09:16:46 52° ENE 09:20:27 10° SSE
SL-16 R/B 2.7 09:12:46 10° S 09:18:53 56° WSW 09:25:04 10° NNW
BREEZE-M DEB (TANK) 4.3 09:16:55 10° NW 09:19:14 19° N 09:20:55 10° NE
DELTA 2 R/B (1) 4.4 09:16:05 10° SW 09:21:13 40° SSE 09:26:21 10° E
SL-4 R/B 3.4 09:21:02 10° W 09:23:22 16° SW 09:25:39 10° S
Cosmos 2360 Rocket 3.9 09:23:42 10° W 09:25:04 11° W 09:26:26 10° WSW
SL-14 R/B 4.1 09:24:18 10° SW 09:27:49 32° WNW 09:31:21 10° N
Meteor 2-10 Rocket 4.3 09:25:13 10° NNW 09:29:39 30° W 09:34:11 10° SSW
RESURS DK-1 2.8 09:25:55 10° NNW 09:29:53 64° ENE 09:33:48 10° SE
BREEZE-M DEB (TANK) 2.8 09:27:13 10° WNW 09:33:55 48° SW 09:36:37 10° SE
